Malmstrom AFB, MT

12:38 AM MST on December 11, 2016 (GMT -0700)
Malmstrom AFB

Weather History for KGFA - November, 2012

Change the Weather History Date:

Sunday, November 18, 2012

  Actual Average (KGTF) Record (KGTF)
Temperature  
Mean Temperature 40 °F -  
Max Temperature 48 °F 40 °F 67 °F (2008)
Min Temperature 32 °F 21 °F -25 °F (1903)
Degree Days  
Heating Degree Days 25    
Moisture  
Dew Point 25 °F    
Average Humidity 50    
Maximum Humidity 65    
Minimum Humidity 30    
Precipitation  
Precipitation 0.00 in - - ()
Sea Level Pressure  
Sea Level Pressure 29.87 in    
Wind  
Wind Speed 15 mph (SSW)    
Max Wind Speed 31 mph    
Max Gust Speed 38 mph    
Visibility 10 miles    
Events      
Averages and records for this station are not official NWS values.
T = Trace of Precipitation, MM = Missing Value Source: NWS Daily Summary

Daily Weather History Graph

Daily Weather History Graph

Search for Another Location

Airport or City:

Trip Planner

Search our weather history database for the weather conditions in past years. The results will help you decide how hot, cold, wet, or windy it might be!

Date:

Astronomy

Nov. 18, 2012 Rise Set
Actual Time 7:34 AM MST 4:44 PM MST
Civil Twilight 7:00 AM MST 5:18 PM MST
Nautical Twilight 6:23 AM MST 5:56 PM MST
Astronomical Twilight 5:46 AM MST 6:32 PM MST
Moon 11:59 AM MST (11/18) 10:15 PM MST (11/18)
Length of Visible Light 10h 17m
Length of Day
9h 09m
Waxing Crescent, 31% of the Moon is Illuminated
Nov 18
Waxing Crescent
Nov 20
First Quarter
Nov 28
Full
Dec 6
Last Quarter
Dec 13
New

Hourly Weather History & Observations

Time (MST) Temp. Windchill Dew Point Humidity Pressure Visibility Wind Dir Wind Speed Gust Speed Precip Events Conditions
12:56 AM 46.9 °F - 33.1 °F 59% 29.69 in 10.0 mi SSW 15.0 mph - N/A   Clear
1:56 AM 45.0 °F 40.6 °F 32.0 °F 60% 29.68 in 10.0 mi South 8.1 mph - N/A   Clear
2:56 AM 48.0 °F - 33.1 °F 56% 29.65 in 10.0 mi South 17.3 mph - N/A   Clear
3:56 AM 48.0 °F - 33.1 °F 56% 29.64 in 10.0 mi South 18.4 mph - N/A   Clear
4:56 AM 46.0 °F 40.2 °F 32.0 °F 58% 29.65 in 10.0 mi SSE 12.7 mph - N/A   Clear
5:56 AM 44.1 °F 39.0 °F 33.1 °F 65% 29.65 in 10.0 mi SE 9.2 mph - N/A   Clear
6:56 AM 46.0 °F 40.2 °F 33.1 °F 61% 29.67 in 10.0 mi SSW 12.7 mph - N/A   Scattered Clouds
7:56 AM 46.9 °F - 30.0 °F 52% 29.73 in 10.0 mi SW 21.9 mph 28.8 mph N/A   Overcast
8:56 AM 45.0 °F 36.6 °F 30.0 °F 56% 29.80 in 10.0 mi SSW 21.9 mph 27.6 mph N/A   Overcast
9:56 AM 46.9 °F - 25.0 °F 42% 29.84 in 10.0 mi SSW 17.3 mph 28.8 mph N/A   Clear
10:56 AM - - - N/A% 29.87 in 10.0 mi SSW 27.6 mph - N/A   Unknown
11:56 AM 46.0 °F 36.5 °F 21.0 °F 37% 29.88 in 10.0 mi SSW 31.1 mph 38.0 mph N/A   Clear
12:56 PM 46.0 °F 37.6 °F 19.0 °F 34% 29.90 in 10.0 mi SSW 24.2 mph 35.7 mph N/A   Clear
1:56 PM 46.9 °F - 18.0 °F 32% 29.93 in 10.0 mi SW 19.6 mph 29.9 mph N/A   Clear
2:56 PM 46.0 °F 39.9 °F 16.0 °F 30% 29.95 in 10.0 mi SSW 13.8 mph 21.9 mph N/A   Clear
3:56 PM 44.1 °F 39.5 °F 17.1 °F 34% 29.99 in 10.0 mi SW 8.1 mph - N/A   Clear
4:56 PM 43.0 °F 36.8 °F 18.0 °F 37% 30.02 in 10.0 mi SW 11.5 mph - N/A   Clear
5:56 PM 43.0 °F 35.4 °F 18.0 °F 37% 30.03 in 10.0 mi SW 16.1 mph - N/A   Clear
6:56 PM 39.0 °F 31.4 °F 21.0 °F 49% 30.04 in 10.0 mi SSW 12.7 mph - N/A   Clear
7:56 PM 37.0 °F 27.7 °F 21.0 °F 52% 30.03 in 10.0 mi SSW 16.1 mph - N/A   Clear
8:56 PM 33.1 °F 27.7 °F 21.0 °F 61% 30.05 in 10.0 mi South 5.8 mph - N/A   Clear
9:56 PM 32.0 °F 23.6 °F 21.0 °F 64% 30.05 in 10.0 mi South 10.4 mph - N/A   Clear
10:56 PM 32.0 °F 24.8 °F 21.0 °F 64% 30.05 in 10.0 mi SSE 8.1 mph - N/A   Clear
11:56 PM 32.0 °F 24.2 °F 21.0 °F 64% 30.06 in 10.0 mi South 9.2 mph - N/A   Clear